Regional Weather Roundup
Issued by NWS Memphis, TN

Current Version | Previous Version | Text Only | Print | Product List | Glossary On
Versions: 1 2 3 4 5 6 7 8 9 10 11 12 13 14 15 16 17 18 19 20 21 22 23 24 25 26 27 28 29 30 31 32 33 34 35 36 37 38 39 40 41 42 43 44 45 46 47 48 49 50
215
ASUS44 KMEG 271410
RWRMEG
MEMPHIS CWA HOURLY WEATHER ROUNDUP
NATIONAL WEATHER SERVICE MEMPHIS TN
900 AM CDT THU APR 27 2017

...WEST TENNESSEE...

CITY           SKY/WX    TMP DP  RH WIND       PRES   REMARKS
MEMPHIS INTL   CLOUDY    53  46  77 NW7       29.81R
NWS MEMPHIS      N/A     52 N/A N/A MISG        N/A
JACKSON        CLOUDY    53  48  83 W10       29.81R
SOMERVILLE     CLOUDY    52  48  87 NW5       29.80R
BOLIVAR        CLOUDY    52  48  87 W8G15     29.81R
LEXINGTON      CLOUDY    54  50  87 W8        29.78R
SAVANNAH       CLOUDY    57  54  88 VRB6      29.79R
DYERSBURG      CLOUDY    52  45  77 W7        29.81R
UNION CITY     CLOUDY    52  46  82 W7        29.78R
PARIS          CLOUDY    48  45  87 W14       29.78R
HUNTINGDON     CLOUDY    52  48  87 W9        29.78R


...EASTERN ARKANSAS...

CITY           SKY/WX    TMP DP  RH WIND       PRES   REMARKS
JONESBORO      PTSUNNY   53  44  71 W5        29.79S
WEST MEMPHIS   PTSUNNY   53  47  79 N3        29.81R
BATESVILLE     SUNNY    N/A N/A N/A W8        29.81R
NEWPORT        MOSUNNY   52  45  77 MISG      29.81
WALNUT RIDGE   PTSUNNY   52  43  71 W7        29.79R
BLYTHEVILLE    CLOUDY    52  47  83 W3        29.80R
SEARCY         MOSUNNY   52  45  77 NW6       29.84R
STUTTGART      SUNNY     54  39  58 NW7       29.85R
PINE BLUFF     SUNNY     54  46  74 W6        29.85R
MONTICELLO     SUNNY     56  46  69 N3        29.85R


...NORTH MISSISSIPPI...

CITY           SKY/WX    TMP DP  RH WIND       PRES   REMARKS
TUPELO         CLOUDY    56  51  84 NW12      29.80R
OXFORD         CLOUDY    50  48  93 NW9       29.85R
BATESVILLE     CLOUDY    54  48  82 NW5       29.84R
OLIVE BRANCH   CLOUDY   N/A N/A N/A W5        29.80R
TUNICA         PTSUNNY   52  45  76 NW8       29.84R
CLARKSDALE     CLOUDY    54  54 100 N7        29.84R
CORINTH        CLOUDY    55  52  88 W12       29.80R
GREENWOOD      CLOUDY    55  51  86 NW6       29.84R
COLUMBUS       CLOUDY    61  61 100 W15       29.79R
STARKVILLE     CLOUDY    57  55  94 NW6       29.82R
GOLDEN TRIANGL CLOUDY    63  55  77 NW9       29.76R


...SOUTHEAST MISSOURI...

CITY           SKY/WX    TMP DP  RH WIND       PRES   REMARKS
KENNETT        CLOUDY    54  45  71 W8        29.78R
MALDEN         PTSUNNY   52  45  76 W10       29.79R
WEST PLAINS    CLOUDY    47  40  76 NW12      29.77R
POPLAR BLUFF   CLOUDY    51  43  74 W8        29.77R
CAPE GIRARDEAU CLOUDY    50  43  77 W13       29.76R


...NORTHWEST ALABAMA...

CITY           SKY/WX    TMP DP  RH WIND       PRES   REMARKS
MUSCLE SHOALS  PTSUNNY   61  56  83 NW15G21   29.78R


...MIDDLE TENNESSEE...

CITY           SKY/WX    TMP DP  RH WIND       PRES   REMARKS
NASHVILLE      PTSUNNY   66  59  78 SW6       29.72R
CLARKSVILLE    CLOUDY    54  48  80 W16       29.75R
COLUMBIA         N/A    N/A N/A N/A W10       29.74R


...WESTERN KENTUCKY...

CITY           SKY/WX    TMP DP  RH WIND       PRES   REMARKS
PADUCAH        CLOUDY    52  45  77 W13       29.75R
FORT CAMPBELL  CLOUDY    53  50  90 W13       29.75R


...CENTRAL ARKANSAS...

CITY           SKY/WX    TMP DP  RH WIND       PRES   REMARKS
LITTLE ROCK    PTSUNNY   53  46  77 NW6       29.83R


SKY/WX REPORTED AS FAIR MEANS FEW OR NO CLOUDS BELOW
12 THOUSAND FEET.





USA.gov is the U.S. government's official web portal to all federal, state and local government web resources and services.